Fort Wayne Police Department
Fort Wayne Police Department
Emergencies Call: 911
Non-Emergencies: (260) 427-1222
report drug house

Daily Activity Logs

Activity Log for January 15, 2014 Community Search

Incident Time Nature Address
14F006030 00:02:56 101 OPEN DOOR 7300 MAEVE DR
14F006031 00:04:48 34 TRAFF HAZARD 5700 CALHOUN ST S & PAULDING RD E
14F006032 00:13:55 40I INTRUSION 5000 ILLINOIS RD
14F006034 00:17:15 43 DISTURBANCE 900 WASHINGTON BLVD E
14F006035 00:21:55 48 SUSPICIOUS 600 JEFFERSON BLVD E & HANNA ST S
14F006036 00:25:17 911 HANG UP 1000 WALLACE ST E
14F006037 00:26:48 911 HANG UP 800 OAKLAWN CT
14F006038 00:35:38 911 HANG UP 4800 MARSTON DR
14F006039 00:45:37 129 800 TENNESSEE AVE
14F006040 00:50:50 911 HANG UP 2700 GOSHEN RD
14F006042 00:52:43 44LM 2300 HOAGLAND AVE
14F006041 00:52:53 48,36 4300 DEFOREST AVE & SANDPOINT RD
14F006044 00:58:34 44 NUISANCE 2500 GREENWAY RD
14F006043 00:58:46 43 DISTURBANCE 2600 LOWER HUNTINGTON RD
14F006046 00:59:34 44LM 800 COLUMBIA AVE
14F006045 01:05:17 41 MAN DOWN 3800 HARRISON ST S
14F006047 01:10:23 48,36 2100 BUTLER RD
14F006048 01:15:29 44 NUISANCE 200 DALMAN AVE
14F006049 01:26:43 48 SUSPICIOUS 1800 WOODHAVEN DR
14F006050 01:41:39 48 SUSPICIOUS 3400 WOODGATE TRL
14F006051 01:41:52 43 DISTURBANCE 6800 BLUFFTON RD
14F006052 01:45:01 65T SUICIDE THR 5400 CRESTHILL DR
14F006054 01:47:42 48,36 11100 PARKVIEW PLAZA DR
14F006053 01:48:39 46 DOMESTIC 3900 NEWPORT AVE
14F006056 02:07:36 48 SUSPICIOUS 2500 DUPONT RD E
14F006055 02:07:37 43 DISTURBANCE 200 DALMAN AVE
14F006057 02:08:54 1 MEET 700 EDGEWATER AVE
14F006058 02:12:38 96 BATTERY 800 CREIGHTON AVE W
14F006059 02:45:27 101 OPEN DOOR 3700 MARCHFIELD PL
14F006060 03:17:40 30 TRAFFIC STOP 11300 ILLINOIS RD & CHESTNUT HILLS
14F006061 03:24:56 30 TRAFFIC STOP 9700 ILLINOIS RD
14F006062 04:10:45 63 CONTACT 1600 MAYFIELD DR S
14F006063 04:21:51 48 SUSPICIOUS 2000 HOAGLAND AVE
14F006064 04:59:32 30 TRAFFIC STOP 2000 ARDMORE AVE
14F006065 05:11:45 103 UNWANTED 4100 BOWSER AVE
14F006066 05:14:21 48 SUSPICIOUS 1400 HARRISON ST N
14F006067 05:16:13 30 TRAFFIC STOP 7200 HOMESTEAD RD & JEFFERSON BLVD
14F006068 05:43:04 30 TRAFFIC STOP 5800 JEFFERSON BLVD W
14F006069 05:48:52 48 SUSPICIOUS 800 COLISEUM BLVD E & CLINTON ST N
14F006070 05:51:13 33,34 8200 ILLINOIS RD & RIVER OAK RUN
14F006071 06:29:46 16V PICKUP VID 00 MAIN ST E
14F006072 06:33:04 40 ALARM 4500 INVESTMENT DR
14F006073 06:37:52 108 FOLLOWUP 6800 CURWOOD DR
14F006074 06:39:11 911 HANG UP 3500 DELRAY DR
14F006075 06:43:06 23JO 1200 COLUMBIA AVE
14F006076 06:49:34 40A AUDIBLE 4900 LIMA RD
14F006077 07:02:40 46,96 6000 RADCLIFFE DR
14F006078 07:13:13 129 8100 CALERA DR
14F006079 07:23:14 40 ALARM 500 INCENTIVE DR
14F006080 07:23:33 25 PD ACCIDENT 800 SPRING ST & SHERMAN BLVD
14F006081 07:30:59 911 HANG UP 2900 ENGLE RD
14F006082 07:36:27 63 CONTACT 6700 LIMA RD
14F006083 07:45:02 911 HANG UP 500 HIGH ST
14F006084 07:57:26 911 HANG UP 2100 HANNA ST S
14F006086 07:58:27 34 TRAFF HAZARD 300 ESSEX LN E & COLDWATER RD
14F006085 07:59:35 40A AUDIBLE 100 COLUMBIA ST W
14F006087 08:10:00 103 UNWANTED 200 BERRY ST E
14F006088 08:12:31 129 1400 OXFORD ST
14F006092 08:19:26 25HS HIT SKIP 1400 DODGE AVE
14F006090 08:23:48 25 PD ACCIDENT 700 ARCHER AVE & ANDREW ST
14F006091 08:28:09 48 SUSPICIOUS 5100 WEBSTER ST
14F006093 08:44:33 40A AUDIBLE 500 LILLIAN AVE
14F006094 08:48:54 40A AUDIBLE 300 OAKDALE DR W
14F006096 08:56:20 102 THREATS 9400 CRYSTAL SPRING DR
14F006095 08:56:37 15,84 ASS URGEN 4400 BOWSER AVE
14F006097 09:13:01 37 PARKING VIOL 1900 FLORIDA DR
14F006098 09:20:18 911 HANG UP 2500 DREXEL AVE
14F006099 09:20:30 63 CONTACT 5600 COOK RD W
14F006100 09:23:25 17 MOTOR CHECK 900 COLISEUM BLVD W
14F006101 09:28:49 38 LOST/STOLEN 2000 OXFORD ST
14F006103 09:40:41 48 SUSPICIOUS 1200 FOSTER PKWY W
14F006104 09:42:10 911 HANG UP 900 CLINTON ST S
14F006106 09:46:11 43,62 2800 JAMES ST
14F006105 09:46:55 108 FOLLOWUP 1800 LATHROP DR
14F006107 09:51:33 40A AUDIBLE 9400 BLUE MOUND DR
14F006108 10:03:33 30 TRAFFIC STOP 1000 LINDENWOOD AVE S
14F006109 10:05:55 40A AUDIBLE 4300 REED ST
14F006110 10:12:20 101 OPEN DOOR 2100 THOMPSON AVE
14F006111 10:17:46 51 THEFT 3200 MONO GENE DR
14F006112 10:18:28 30 TRAFFIC STOP 1100 LINDENWOOD AVE S
14F006113 10:19:40 51,35 3200 COLISEUM BLVD E
14F006114 10:24:03 17 MOTOR CHECK 6200 BRADBURY AVE
14F006116 10:24:10 911 HANG UP 1900 GREENTREE CT
14F006115 10:25:02 HARASSMENT 700 ANDERSON AVE
14F006117 10:29:53 25 PD ACCIDENT 5800 LIMA RD & WASHINGTON CENTER R
14F006118 10:32:41 22I JUV INVEST 7000 COLDWATER RD
14F006119 10:34:01 911 HANG UP 6700 ANTHONY BLVD S
14F006120 10:43:06 911 HANG UP 7600 BLUFFTON RD
14F006121 10:44:26 63 CONTACT 1800 PURDUE DR
14F006122 10:45:47 46 DOMESTIC 3400 BOWSER AVE
14F006123 10:51:04 38 LOST/STOLEN 2400 CALHOUN ST S
14F006124 10:51:44 51 THEFT 1600 SPY RUN AVE
14F006125 10:54:19 30 TRAFFIC STOP 200 JEFFERSON BLVD E & BARR ST S
14F006126 10:54:56 50JO 800 SAN JUAN CIR
14F006129 11:03:44 102 THREATS 3700 WASHINGTON BLVD E
14F006130 11:03:45 99 NARCOTICS 2100 HOBSON RD
14F006128 11:04:36 51 THEFT 1500 ILLINOIS RD S
14F006131 11:13:20 63 CONTACT 2200 COLGATE DR
14F006132 11:13:46 911 HANG UP 3700 CLINTON ST S
14F006133 11:15:26 911 HANG UP 1000 COLISEUM BLVD N
14F006134 11:33:18 43,62 3400 GAYWOOD DR & OXFORD ST
14F006135 11:35:51 51 THEFT 6700 COVINGTON CREEK TRL
14F006137 11:42:21 102,TX THREATS 4600 LAFAYETTE ESPLANADE
14F006136 11:45:53 46,96 2200 WEBSTER ST
14F006138 11:53:27 TOW 7000 MONTEREY DR
14F006139 12:03:33 TOW 2700 WASHINGTON CENTER RD W
14F006140 12:04:36 96 BATTERY 3500 LILLIE ST
14F006141 12:11:28 HARASSMENT 2100 GOSHEN RD
14F006143 12:26:48 46,62 500 DEWALD ST E
14F006144 12:28:49 40A AUDIBLE 3400 OLIVER ST
14F006142 12:29:10 25 PD ACCIDENT 1200 DUPONT RD W & AVALON WAY
14F006145 12:35:36 25HS HIT SKIP 3800 ANTHONY BLVD N
14F006147 12:35:42 911 HANG UP 2100 EDEN ST
14F006146 12:35:49 129 4400 WASHINGTON RD N
14F006149 12:42:07 33J LOCKED OUT 3500 ST JOE CENTER RD
14F006148 12:44:00 51 THEFT 700 EWING ST
14F006150 12:45:39 48 SUSPICIOUS 4100 MONUMENT DR
14F006151 12:48:11 17 MOTOR CHECK 7500 BLUFFTON RD
14F006152 12:53:43 51 THEFT 1500 DUPONT RD W
14F006153 13:01:12 30 TRAFFIC STOP 600 SUPERIOR ST W
14F006154 13:03:34 30 TRAFFIC STOP 5300 JEFFERSON BLVD W
14F006155 13:07:12 25 PD ACCIDENT 1900 BROADWAY & TAYLOR ST
14F006156 13:07:51 65T SUICIDE THR 1900 CAREW ST
14F006157 13:09:58 51IP 5900 JEFFERSON BLVD W
14F006158 13:12:58 50,ATTEMPTED 4700 TURBO TRL
14F006159 13:18:40 46,96 4600 WASHINGTON BLVD E
14F006192 13:20:57 16,97 1600 FOREST PARK BLVD
14F006160 13:23:59 46,96 3900 GAYWOOD DR
14F006170 13:24:21 50 BURGLARY 7700 STATE BLVD E
14F006161 13:25:24 48 SUSPICIOUS 900 RIVERMET AVE
14F006166 13:25:57 102 THREATS 6400 OAKBROOK PKWY
14F006163 13:30:41 911 HANG UP 100 COOK RD W
14F006162 13:32:00 1600 RANDALLIA DR
14F006164 13:35:41 911 HANG UP 4000 WAYNE TRACE
14F006176 13:46:31 50 BURGLARY 500 MEYER AVE
14F006167 13:49:07 HARASSMENT 6000 THORNWOOD CT
14F006168 13:50:51 43 DISTURBANCE 3300 PAULDING RD E
14F006169 13:54:05 51,35 900 LIBRARY PLAZA
14F006173 13:57:42 39 STOLEN VEHIC 00 MAIN ST E
14F006171 14:00:23 129 8600 OAKCLIFF CT
14F006172 14:02:23 33,34 7700 ST JOE RD & CATALPA LN
14F006174 14:02:54 16V PICKUP VID 00 MAIN ST E
14F006175 14:04:22 129 6000 ALLENDALE CT
14F006177 14:07:22 30 TRAFFIC STOP 4100 CLINTON ST N
14F006178 14:10:03 30 TRAFFIC STOP 4200 WELLS ST
14F006182 14:10:46 43 DISTURBANCE 1800 ALLIGER ST
14F006179 14:11:00 30 TRAFFIC STOP 800 COLISEUM BLVD E & CLINTON ST N
14F006183 14:11:21 51 THEFT 100 DEWALD ST W
14F006181 14:11:39 911 HANG UP 900 WASHINGTON CENTER RD E
14F006180 14:12:08 30 TRAFFIC STOP 2300 ANTHONY BLVD S & MILAN ST
14F006185 14:18:09 37 PARKING VIOL 1300 WALL ST
14F006186 14:27:19 911 HANG UP 600 FIFTH ST
14F006187 14:28:59 101 OPEN DOOR 200 WOODLAND AVE W
14F006188 14:33:41 1 MEET 2800 WEISSER PARK AVE
14F006189 14:34:06 108 FOLLOWUP 2800 WEISSER PARK AVE
14F006190 14:34:15 102 THREATS 1800 WHEELER ST
14F006191 14:37:13 25 PD ACCIDENT 100 MAIN ST E & CLINTON ST S
14F006193 14:39:43 30 TRAFFIC STOP 500 STATE BLVD W & SHORT ST
14F006194 14:40:00 46 DOMESTIC 1400 TAYLOR ST
14F006195 14:42:19 46 DOMESTIC 3700 WASHINGTON BLVD E
14F006196 14:44:17 33,34 3900 STATE BLVD E & COLISEUM BLVD
14F006197 14:45:27 30 TRAFFIC STOP 1900 WELLS ST & GREENLAWN AVE
14F006199 14:46:36 43 DISTURBANCE 1000 COLISEUM BLVD N
14F006198 14:47:21 48 SUSPICIOUS 5100 MEIJER DR & MAYSVILLE RD
14F006202 14:48:00 102 THREATS 7000 COLDWATER RD
14F006204 14:48:52 25 PD ACCIDENT 10300 LIMA RD & DUPONT RD W
14F006200 14:49:00 26PP PINNED 10600 LIMA RD & BROKEN OAK RD
14F006207 14:50:19 50 BURGLARY 900 CRESCENT AVE
14F006203 14:52:08 15 ASSIST 500 DEWALD ST E
14F006211 14:53:25 11C CAGE CAR 2200 FAIRFIELD AVE
14F006201 14:54:06 51 THEFT 00 MAIN ST E
14F006205 14:57:08 30 TRAFFIC STOP 4900 WASHINGTON RD N
14F006208 14:57:57 51 THEFT 10200 ILLINOIS RD
14F006206 15:00:54 72 FAIL TO PAY 10100 LIMA RD
14F006209 15:02:07 27 RECKLESS DRI 3400 BROOKLYN AVE & NUTTMAN AVE
14F006210 15:05:44 25 PD ACCIDENT 7300 WINCHESTER RD
14F006212 15:08:49 99 NARCOTICS 4500 CRAFTSBURY CIR
14F006216 15:10:54 51JO 1400 APPLE GLEN BLVD
14F006213 15:10:55 23,35 VAND VEH 5100 STONEHEDGE BLVD
14F006215 15:11:03 43 DISTURBANCE 800 RIDGEWOOD DR
14F006214 15:11:45 129 3500 WAYNE TRACE
14F006217 15:13:14 48 SUSPICIOUS 1800 FOX POINT TRL
14F006218 15:17:14 911 HANG UP 7000 BLUFFTON RD
14F006220 15:20:04 63 CONTACT 8100 CLINTON ST N
14F006219 15:21:10 30 TRAFFIC STOP 4900 WASHINGTON RD N
14F006221 15:22:15 33,34 2000 FAIRFIELD AVE & WALNUT ST
14F006223 15:22:30 911 HANG UP 8000 INVERNESS LAKES TRL
14F006222 15:23:07 TOW 1600 REED RD
14F006226 15:24:02 17 MOTOR CHECK 2400 JEFFERSON BLVD W
14F006225 15:26:42 25 PD ACCIDENT 1300 WASHINGTON CENTER RD E
14F006227 15:28:21 30 TRAFFIC STOP 700 COLISEUM BLVD E
14F006228 15:30:37 26 PI ACCIDENT 5400 LIMA RD & I 69 NB
14F006231 15:36:46 66 72 HOUR 2200 RANDALLIA DR
14F006229 15:37:04 48 SUSPICIOUS 7700 ANTHONY BLVD S & LAFAYETTE ST
14F006233 15:37:41 18 WORK TRAFFIC 6200 LIMA RD & CENTER DR
14F006230 15:40:17 16V PICKUP VID 00 MAIN ST E
14F006232 15:42:28 911 HANG UP 300 COLLINS RD E
14F006234 15:43:00 11C CAGE CAR 00 MAIN ST E
14F006235 15:43:03 46 DOMESTIC 3500 SENATE AVE
14F006236 15:44:32 43 DISTURBANCE 700 WASHINGTON BLVD W
14F006237 15:45:17 25 PD ACCIDENT 9500 MAYSVILLE RD
14F006239 15:47:27 43 DISTURBANCE 3000 PARNELL AVE & VANCE AVE
14F006238 15:47:43 26 PI ACCIDENT 3800 WEISSER PARK AVE & RUDISILL B
14F006240 15:52:36 30 TRAFFIC STOP 2400 GOSHEN RD & INDEPENDENCE DR
14F006241 15:53:15 23 VANDALISM 2000 THOMPSON AVE
14F006242 15:56:02 103 UNWANTED 1000 LEWIS ST E
14F006243 16:00:45 34 TRAFF HAZARD 200 PAULDING RD E
14F006244 16:05:14 25 PD ACCIDENT 1400 CLINTON ST S & BRACKENRIDGE S
14F006245 16:06:30 34 TRAFF HAZARD 1000 STATE BLVD E
14F006246 16:09:36 911 HANG UP 5700 COVENTRY LN
14F006257 16:14:55 63 CONTACT 5400 WERLING DR
14F006247 16:18:29 40H HOLDUP ALRM 300 WALLACE ST E
14F006250 16:20:04 39 STOLEN VEHIC 2200 HOAGLAND AVE
14F006248 16:20:14 30 TRAFFIC STOP 1400 COLISEUM BLVD E & PAUL SHAFFE
14F006249 16:21:33 66 72 HOUR 900 STATE BLVD E
14F006253 16:24:16 911 HANG UP 3300 MCKINNIE AVE
14F006254 16:25:37 25 PD ACCIDENT 1000 BERRY ST E & COOMBS ST
14F006251 16:27:39 30 TRAFFIC STOP 700 COLISEUM BLVD E
14F006259 16:28:34 39U UNAUTHORIZE 00 MAIN ST E
14F006252 16:29:34 51 THEFT 3400 MAPLE GROVE AVE E
14F006255 16:32:28 40P PANIC ALARM 4300 CHAMPLAIN DR
14F006256 16:33:16 911 HANG UP 3500 SOUTHPARK DR
14F006258 16:38:14 46,96 1600 RUDISILL BLVD E
14F006260 16:41:45 30 TRAFFIC STOP 3000 CLINTON ST N
14F006261 16:42:00 51 THEFT 4100 CLINTON ST N
14F006262 16:43:44 30 TRAFFIC STOP 300 COLISEUM BLVD E & COLDWATER RD
14F006263 16:43:56 101 OPEN DOOR 2200 SMITH ST
14F006265 16:52:22 911 HANG UP 5000 US 30 W
14F006264 16:53:07 30 TRAFFIC STOP 2000 CLINTON ST N & JACOBS AVE
14F006266 16:57:05 17 MOTOR CHECK 1000 COLISEUM BLVD N
14F006267 17:00:36 30 TRAFFIC STOP 900 SCHICK ST & WASHINGTON BLVD E
14F006268 17:00:46 101 OPEN DOOR 800 EDGEWATER AVE
14F006269 17:03:48 911 HANG UP 7900 SERENITY DR
14F006273 17:08:01 51 THEFT 5200 HESSEN CASSEL RD
14F006270 17:10:23 911 HANG UP 1300 TAYLOR ST
14F006271 17:12:15 TOW 800 ANTHONY BLVD S
14F006272 17:12:59 66V MENTAL VIOL 1900 ST JOE CENTER RD
14F006274 17:14:40 30 TRAFFIC STOP 6800 STATE BLVD E & TONAWANDA DR
14F006276 17:15:24 911 HANG UP 3500 WEBSTER ST
14F006275 17:16:01 25 PD ACCIDENT 400 FERNHILL AVE W & WELLS ST
14F006279 17:16:09 46 DOMESTIC 900 RIDGEWOOD DR
14F006278 17:17:13 25HS HIT SKIP 1700 RICHARDSON ST
14F006277 17:18:29 33,34 5600 LAFAYETTE ST S & PAULDING RD
14F006280 17:23:39 51 THEFT 3600 CALHOUN ST S
14F006284 17:34:06 15 ASSIST 3000 FAIRFIELD AVE
14F006281 17:34:23 40A AUDIBLE 200 MURRAY ST
14F006282 17:35:19 911 HANG UP 2400 INWOOD DR & GLENCAIRN DR
14F006283 17:36:17 911 HANG UP 4400 LIMA RD
14F006285 17:37:14 17 MOTOR CHECK 10000 AVALON WAY
14F006286 17:37:56 911 HANG UP 700 BUCHANAN ST
14F006289 17:39:19 61 RAPE 8600 LAKESIDE DR
14F006288 17:39:44 66 MENTALLY ILL 3700 HARRISON ST S
14F006287 17:41:48 25 PD ACCIDENT 4200 JEFFERSON BLVD W
14F006293 17:43:45 27 RECKLESS DRI 3900 NOKOMIS RD & OPECHEE WAY
14F006291 17:44:19 17 MOTOR CHECK 2000 ST JOSEPH BLVD
14F006290 17:46:32 22RC RECOVERY 2900 WELLS ST
14F006292 17:48:14 47 REMOVE ITEMS 900 BUCHANAN ST
14F006295 17:54:52 63 CONTACT 3600 HANNA ST S
14F006294 17:54:55 15 ASSIST 1300 HUESTIS AVE
14F006296 18:05:26 40A AUDIBLE 6400 GEORGETOWN NORTH BLVD
14F006297 18:05:28 51 THEFT 00 MAIN ST E
14F006298 18:08:41 40 ALARM 5400 DISTRIBUTION DR
14F006300 18:12:02 43 DISTURBANCE 3400 HARVESTER AVE
14F006299 18:12:51 911 HANG UP 2700 INDEPENDENCE DR
14F006302 18:15:42 911 HANG UP 1300 WINTER ST
14F006301 18:16:15 113 SHOTS FIRED 400 ROSE LN
14F006303 18:18:32 129 3300 CILANTRO CV
14F006304 18:20:35 48,36 4200 MONROE ST S & MCKINNIE AVE
14F006305 18:21:07 11C CAGE CAR 1100 STATE BLVD W
14F006309 18:22:22 40A AUDIBLE 8500 BLUFFTON RD
14F006308 18:22:56 65T SUICIDE THR 700 WASHINGTON BLVD W
14F006310 18:23:27 911 HANG UP 2100 EDEN ST
14F006306 18:23:38 30 TRAFFIC STOP 5400 LIMA RD & I 69 311 NB ON RAMP
14F006307 18:24:09 51 THEFT 400 STATE BLVD W
14F006311 18:28:42 911 HANG UP 4700 DRUID HILLS DR
14F006312 18:32:30 46 DOMESTIC 600 GLAZIER AVE
14F006313 18:39:22 51JO 1100 STATE BLVD W
14F006314 18:44:09 51 THEFT 4200 COLEMAN AVE
14F006315 18:44:15 911 HANG UP 2700 WASHINGTON CENTER RD W
14F006316 18:48:51 911 HANG UP 1800 GOSHEN AVE
14F006317 18:51:16 30 TRAFFIC STOP 2200 SPY RUN AVE & STATE BLVD E
14F006318 18:52:15 51JO 1700 APPLE GLEN BLVD
14F006321 18:52:35 911 HANG UP 1000 VANCE AVE
14F006319 18:53:43 129 1000 CROWDER CT
14F006322 18:54:16 48,36 3500 STELLHORN RD & ROSEVIEW RD
14F006320 18:54:57 129 2100 LAKEWOOD DR
14F006323 19:00:38 25 PD ACCIDENT 300 DUPONT RD W & LA CABREAH LN
14F006324 19:00:46 43 DISTURBANCE 3200 WEBSTER ST
14F006325 19:04:13 25 PD ACCIDENT 4700 CLINTON ST N & PARNELL AVE
14F006326 19:05:40 129 4200 OAKHURST DR
14F006327 19:06:29 43 DISTURBANCE 400 BIRCHTREE LN
14F006329 19:08:28 911 HANG UP 400 DEWALD ST W
14F006328 19:10:41 30 TRAFFIC STOP 800 SPRING ST & SHERMAN BLVD
14F006331 19:16:17 101 OPEN DOOR 500 STRATTON RD
14F006332 19:16:28 46 DOMESTIC 2600 FAIRFIELD VIEW PL
14F006330 19:16:33 30 TRAFFIC STOP 3100 COVINGTON RD & FREEMAN ST
14F006336 19:19:16 46 DOMESTIC 5100 MARTINIQUE RD
14F006334 19:19:43 40A AUDIBLE 4300 REED ST
14F006333 19:19:44 30 TRAFFIC STOP 1100 STATE BLVD W
14F006335 19:20:41 25 PD ACCIDENT 5200 COLDWATER RD & ESSEX LN E
14F006337 19:26:14 96 BATTERY 900 COLISEUM BLVD N
14F006338 19:27:12 911 HANG UP 2100 PETTIT AVE E
14F006339 19:33:28 HARASSMENT 3200 STATE BLVD E
14F006341 19:33:52 48 SUSPICIOUS 500 DUPONT RD E
14F006340 19:34:19 40A AUDIBLE 8500 BLUFFTON RD
14F006342 19:37:53 30 TRAFFIC STOP 600 WALLACE ST E & HANNA ST S
14F006344 19:39:53 33,34 30200 I 69 NB
14F006343 19:40:52 37 PARKING VIOL 900 UNION ST
14F006345 19:41:50 25HS HIT SKIP 2100 PEMBERTON DR
14F006346 19:42:39 14 WARRANT 400 WILLIAMS ST W
14F006347 19:46:10 25 PD ACCIDENT 3600 PARNELL AVE
14F006348 19:46:16 50,ATTEMPTED 1300 LEESBURG RD
14F006349 19:51:06 30 TRAFFIC STOP 1800 HANNA ST S & MASTERSON AVE E
14F006351 19:51:30 911 HANG UP 8200 KILLEEN RUN
14F006350 19:52:57 30 TRAFFIC STOP 900 OAKLAWN CT
14F006352 19:53:53 33,34 3900 HARRY BAALS DR & COLISEUM BLV
14F006353 19:59:29 30 TRAFFIC STOP 1900 ELLEN AVE & TYLER AVE
14F006354 20:04:00 25HS HIT SKIP 4000 PARNELL AVE
14F006355 20:04:01 48 SUSPICIOUS 1700 SINCLAIR ST
14F006360 20:04:57 66V MENTAL VIOL 9200 STARLAND CT
14F006356 20:05:31 30 TRAFFIC STOP 4000 LAKE AVE & COLISEUM BLVD N
14F006357 20:06:04 30 TRAFFIC STOP 1500 HANNA ST S & HAYDEN ST
14F006358 20:06:05 33,34 4600 ILLINOIS RD & APPLE GLEN BLVD
14F006359 20:07:00 46 DOMESTIC 700 HUFFMAN ST
14F006361 20:14:43 911 HANG UP 8300 MAPLE VALLEY DR
14F006362 20:15:34 16V PICKUP VID 00 MAIN ST E
14F006363 20:16:03 30 TRAFFIC STOP 4500 CALHOUN ST S & SHERWOOD TERR
14F006364 20:16:49 113 SHOTS FIRED 4100 WENONAH LN
14F006365 20:20:38 48 SUSPICIOUS 7500 COLDWATER RD
14F006366 20:21:57 48 SUSPICIOUS 1000 MONROE ST S & JEFFERSON BLVD
14F006367 20:22:41 23,113 400 ENGLEWOOD CT
14F006369 20:24:11 63 CONTACT 7500 LESWOOD CT
14F006368 20:25:29 48 SUSPICIOUS 600 LEWIS ST E & HANNA ST S
14F006370 20:25:40 102 THREATS 2300 HARRISON ST S
14F006371 20:27:02 99 NARCOTICS 1800 WOODHAVEN DR
14F006372 20:30:43 23 VANDALISM 1000 RIVERMET AVE
14F006373 20:32:10 911 HANG UP 4800 EVARD RD
14F006374 20:35:47 43 DISTURBANCE 2900 LUDWIG RD W
14F006375 20:38:06 25 PD ACCIDENT 4300 CLINTON ST N & COLISEUM BLVD
14F006377 20:42:37 63 CONTACT 5900 ILLINOIS RD
14F006376 20:45:46 48 SUSPICIOUS 600 LEWIS ST E
14F006378 20:59:12 34 TRAFF HAZARD 1400 ANTHONY BLVD N & LAKE AVE
14F006379 21:01:37 46 DOMESTIC 4900 FAIRINGTON DR
14F006380 21:03:49 40A AUDIBLE 5700 INDUSTRIAL RD
14F006389 21:06:14 37 PARKING VIOL 3200 HARRISON ST S
14F006381 21:09:28 25HS HIT SKIP 1800 CODY AVE & KENSINGTON BLVD
14F006382 21:11:46 66 72 HOUR 2200 RANDALLIA DR
14F006383 21:13:00 40A AUDIBLE 1100 BARR ST S
14F006384 21:13:53 66 MENTALLY ILL 700 BROADWAY
14F006385 21:18:34 22I JUV INVEST 400 RIDGEMOOR DR
14F006386 21:20:22 911 HANG UP 800 OAKLAWN CT
14F006387 21:29:18 911 HANG UP 3100 ADAMS ST
14F006390 21:30:52 48,36 4900 CALHOUN ST S
14F006388 21:32:24 1 MEET 2200 BEACON ST
14F006391 21:38:47 43,62 1000 HIGH ST & ST MARYS AVE
14F006392 21:41:09 33,34 100 PETTIT AVE E & MONTROSE AVE
14F006393 21:45:25 1 MEET 8800 COLDWATER RD
14F006394 21:53:47 33,34 30700 I 69 SB
14F006396 21:54:06 911 HANG UP 5200 VALUE DR
14F006395 21:54:29 15 ASSIST 7300 ENGLE RD & JEFFERSON BLVD W
14F006397 21:59:58 911 HANG UP 2700 MILLBROOK DR
14F006399 22:03:45 51 THEFT 3500 MONTAGNE DR
14F006398 22:06:27 30 TRAFFIC STOP 5400 LIMA RD & I 69 NB
14F006400 22:06:43 96 BATTERY 1200 BOONE ST
14F006401 22:11:55 43 DISTURBANCE 5800 BLUFFTON RD
14F006402 22:11:59 66 MENTALLY ILL 1000 COLERICK ST
14F006403 22:12:57 43 DISTURBANCE 2900 MEADOWS PARK WAY
14F006404 22:14:18 911 HANG UP 3800 LIMA RD
14F006409 22:15:37 46 DOMESTIC 1100 WILT ST
14F006405 22:16:40 23,113 200 ESMOND ST
14F006406 22:20:46 40 ALARM 9900 DUPONT CIRCLE DR E
14F006418 22:23:31 27 RECKLESS DRI 7300 LIMA RD & COOK RD W
14F006407 22:25:18 37 PARKING VIOL 7900 OKLAHOMA TRL & PLEASURE CT
14F006408 22:26:36 30 TRAFFIC STOP 2400 GOSHEN RD & INDEPENDENCE DR
14F006411 22:26:41 46 DOMESTIC 3300 EUCLID AVE
14F006410 22:27:33 102,TX THREATS 6500 COVINGTON RD
14F006412 22:32:33 30 TRAFFIC STOP 7300 LAFAYETTE ST S & TILLMAN RD E
14F006414 22:32:42 43 DISTURBANCE 2300 HARRISON ST S
14F006416 22:32:47 40A AUDIBLE 3400 PLAZA DR
14F006413 22:34:30 30 TRAFFIC STOP 100 FERNHILL AVE W & LIMA RD
14F006417 22:34:49 48 SUSPICIOUS 4600 BEAVER AVE
14F006415 22:35:53 46,96 11900 WESTWIND DR
14F006422 22:40:31 911 HANG UP 3100 WEBSTER ST
14F006419 22:40:34 46 DOMESTIC 800 RIDGEWOOD DR
14F006420 22:42:04 911 HANG UP 400 JEFFERSON BLVD W
14F006425 22:44:54 44LM 3300 ACADEMIC PL
14F006421 22:45:12 15 ASSIST 2200 MAPLECREST RD & STATE BLVD E
14F006423 22:49:04 30 TRAFFIC STOP 2900 GOSHEN RD & COLISEUM BLVD W
14F006424 22:49:58 25HS HIT SKIP 3100 COLISEUM BLVD E & HOBSON RD
14F006430 23:05:32 34 TRAFF HAZARD 9400 CARMONDY XING & PINESTONE DR
14F006427 23:12:48 46 DOMESTIC 2500 MAUMEE AVE
14F006426 23:13:14 30 TRAFFIC STOP 2900 GOSHEN RD & COLISEUM BLVD W
14F006428 23:13:49 30 TRAFFIC STOP 4300 CRESCENT AVE & STELLHORN RD
14F006429 23:18:29 44LM 3300 ACADEMIC PL
14F006431 23:21:59 44LM 3500 ACADEMIC PL
14F006432 23:25:18 15 ASSIST 4300 WARSAW ST & SENATE AVE
14F006433 23:26:22 911 HANG UP 2500 CARLTON CT
14F006434 23:36:40 46 DOMESTIC 900 WASHINGTON BLVD E
14F006435 23:36:59 EMS 1800 CHARTWELL DR
14F006436 23:39:53 30 TRAFFIC STOP 6000 COVINGTON RD & GETZ RD
14F006437 23:41:17 99 NARCOTICS 1300 VANCE AVE
14F006438 23:41:48 23,113 800 OXFORD ST
14F006439 23:44:39 46 DOMESTIC 1400 SWINNEY AVE
14F006440 23:51:18 99 NARCOTICS 300 COLISEUM BLVD W
14F006441 23:53:01 44LM 7200 LAKERIDGE DR
Amber Alert

All-America City